C4984 Weather Reports


Display with metric or nautical units.
time (UTC)temp
F
wind
direction
speed
MPH
gust
MPH
rain 1hr
in
rain 24hr
in
rain mn
in
humidity
%
barometer
mb
20260508105614 48 191 0.0 0.0 0.00 0.39 0.00 98 1010.7
20260508104636 48 201 0.0 0.0 0.00 0.41 0.00 98 1010.7
20260508103654 48 116 0.0 0.0 0.00 0.44 0.00 98 1010.3
20260508102713 49 116 0.0 0.0 0.00 0.44 0.00 98 1010.2
20260508101707 49 106 0.0 0.0 0.00 0.44 0.00 98 1010.2
20260508100648 49 122 0.0 0.0 0.00 0.44 0.00 98 1010.1
20260508095618 49 122 0.0 0.0 0.00 0.44 0.00 98 1010.1
20260508094631 50 122 0.0 0.0 0.00 0.44 0.00 98 1010.1
20260508093639 50 122 0.0 0.0 0.00 0.44 0.00 98 1009.8
20260508092625 50 122 0.0 0.0 0.00 0.44 0.00 98 1009.7
20260508091605 50 122 0.0 0.0 0.00 0.44 0.00 98 1009.7
20260508090533 51 122 0.0 0.0 0.00 0.44 0.00 98 1009.7
20260508085515 51 122 0.0 0.0 0.00 0.44 0.00 98 1009.5
20260508084520 51 122 0.0 0.0 0.00 0.45 0.00 98 1009.5
20260508083507 51 122 0.0 0.0 0.00 0.46 0.00 98 1009.2
20260508081359 52 118 0.0 0.0 0.00 0.46 0.00 98 1009.1
20260508080328 52 152 0.0 1.0 0.00 0.46 0.00 98 1009.1
20260508075317 52 184 0.0 1.0 0.00 0.46 0.00 98 1008.8
20260508074306 52 124 0.0 1.0 0.00 0.46 0.00 98 1008.7
20260508073259 52 115 0.0 0.0 0.00 0.46 0.00 99 1008.7
20260508070006 52 127 0.0 0.0 0.00 0.47 0.00 98 1008.6
20260508065010 52 139 0.0 1.0 0.00 0.47 0.00 98 1008.6
20260508064001 51 144 0.0 0.0 0.00 0.47 0.00 98 1008.6
20260508063015 51 144 0.0 0.0 0.00 0.47 0.00 98 1008.6
20260508061948 52 144 0.0 0.0 0.00 0.47 0.00 98 1008.6
20260508060951 52 144 0.0 0.0 0.00 0.47 0.00 98 1008.6
20260508054831 51 144 0.0 0.0 0.00 0.47 0.00 98 1008.6
20260508053828 51 144 0.0 0.0 0.00 0.48 0.00 98 1008.5
20260508052807 51 144 0.0 0.0 0.00 0.49 0.00 98 1008.6
20260508051736 51 144 0.0 0.0 0.00 0.49 0.00 98 1008.6
20260508050711 51 144 0.0 0.0 0.00 0.49 0.00 98 1008.6
20260508045706 51 144 0.0 0.0 0.00 0.51 0.00 98 1008.5
20260508044640 51 144 0.0 0.0 0.00 0.53 0.00 97 1008.5
20260508043610 51 144 0.0 0.0 0.00 0.54 0.00 97 1008.4
20260508042610 51 129 0.0 0.0 0.00 0.55 0.00 97 1008.2
20260508041617 52 175 0.0 1.0 0.00 0.55 0.00 97 1008.2
20260508040632 52 175 0.0 0.0 0.00 0.55 0.00 97 1007.9
20260508035634 53 213 0.0 0.0 0.00 0.55 0.55 97 1007.9
20260508034639 53 213 0.0 0.0 0.00 0.55 0.55 97 1007.9
20260508033605 53 165 0.0 0.0 0.00 0.55 0.55 98 1007.8
20260508032547 53 165 0.0 0.0 0.00 0.55 0.55 98 1007.8
20260508031559 53 165 0.0 0.0 0.00 0.55 0.55 98 1007.8
20260508030538 53 165 0.0 0.0 0.00 0.55 0.55 98 1007.4
20260508025545 54 165 0.0 0.0 0.00 0.55 0.55 98 1007.3
20260508024608 54 165 0.0 0.0 0.00 0.55 0.55 98 1007.3
20260508023608 54 165 0.0 0.0 0.00 0.55 0.55 98 1007.3
20260508022606 54 165 0.0 0.0 0.00 0.55 0.55 98 1006.9
20260508020505 53 165 0.0 0.0 0.00 0.55 0.55 98 1006.8
20260508015523 53 165 0.0 0.0 0.00 0.55 0.55 98 1006.7
20260508014456 53 165 0.0 0.0 0.00 0.55 0.55 98 1006.7
20260508013452 54 165 0.0 0.0 0.00 0.55 0.55 97 1006.2
20260508012426 54 165 0.0 0.0 0.00 0.55 0.55 98 1006.4
20260508011354 54 165 0.0 0.0 0.00 0.55 0.55 97 1006.2
20260508010417 54 148 0.0 0.0 0.00 0.55 0.55 97 1006.2
20260508003100 54 148 0.0 0.0 0.00 0.55 0.55 97 1005.9
20260508002115 54 148 0.0 0.0 0.00 0.55 0.55 97 1005.8
20260508001132 54 148 0.0 0.0 0.00 0.55 0.55 97 1005.8
20260508000059 54 148 0.0 0.0 0.00 0.55 0.55 97 1005.8
20260507235041 54 143 0.0 0.0 0.00 0.55 0.55 97 1005.6
20260507234103 54 163 0.0 0.0 0.00 0.55 0.55 97 1005.2
20260507233037 54 155 0.0 2.0 0.00 0.55 0.55 97 1005.2
20260507230855 54 356 0.0 2.0 0.00 0.55 0.55 97 1004.7
20260507224753 54 356 1.0 3.0 0.00 0.55 0.55 98 1004.7
20260507223737 54 354 0.0 2.0 0.00 0.55 0.55 98 1004.9
20260507222730 54 1 0.0 3.0 0.00 0.55 0.55 98 1005.3
20260507221716 54 4 0.0 3.0 0.00 0.55 0.55 98 1005.3
20260507213228 54 349 0.0 3.0 0.00 0.55 0.55 98 1004.7
20260507212217 54 359 0.0 3.0 0.00 0.55 0.55 98 1004.7
20260507211201 54 349 0.0 2.0 0.00 0.55 0.55 98 1004.7
20260507210127 54 356 0.0 3.0 0.00 0.55 0.55 98 1004.7
20260507205122 54 347 1.0 3.0 0.00 0.55 0.55 98 1004.2
20260507204049 55 346 1.0 3.0 0.00 0.55 0.55 98 1004.2
20260507203018 55 359 1.0 3.0 0.00 0.55 0.55 98 1004.2
20260507202040 55 356 1.0 2.0 0.00 0.55 0.54 98 1004.3
20260507201020 54 110 1.0 3.0 0.00 0.55 0.54 98 1004.7
20260507194838 54 141 1.0 5.0 0.00 0.55 0.54 98 1004.7
20260507193838 54 349 2.0 5.0 0.00 0.55 0.54 98 1004.8
20260507192843 55 0 1.0 3.0 0.00 0.54 0.53 98 1004.7
20260507191820 55 122 0.0 3.0 0.00 0.54 0.53 98 1004.7
20260507190758 55 0 1.0 4.0 0.00 0.54 0.53 98 1004.1
20260507185735 55 1 1.0 4.0 0.00 0.54 0.53 98 1004.0
20260507184733 56 329 1.0 4.0 0.00 0.54 0.53 98 1004.0
20260507183721 56 342 1.0 6.0 0.00 0.53 0.52 98 1003.9
20260507182727 56 0 2.0 6.0 0.00 0.53 0.52 98 1004.0
20260507181749 56 274 1.0 5.0 0.00 0.53 0.52 98 1004.0
20260507180812 56 359 1.0 7.0 0.00 0.53 0.52 98 1004.1
20260507175747 56 7 2.0 7.0 0.00 0.52 0.51 98 1004.8
20260507173601 57 347 1.0 6.0 0.00 0.52 0.51 98 1004.1
20260507172528 57 349 2.0 8.0 0.00 0.51 0.51 98 1003.6
20260507171500 57 338 3.0 8.0 0.00 0.51 0.51 98 1003.6
20260507165306 58 359 3.0 8.0 0.00 0.51 0.50 97 1003.6
20260507164232 60 353 2.0 4.0 0.00 0.50 0.49 97 1004.4
20260507162111 63 295 1.0 10.0 0.03 0.49 0.48 97 1004.0
20260507155855 66 64 0.0 2.0 0.03 0.48 0.48 99 1003.8
20260507154838 66 214 0.0 1.0 0.04 0.48 0.47 99 1003.8
20260507153901 66 311 0.0 0.0 0.04 0.47 0.46 99 1003.8
20260507152850 67 198 0.0 1.0 0.04 0.46 0.45 99 1003.9
20260507151817 67 77 0.0 0.0 0.05 0.45 0.44 99 1003.9
20260507150840 67 27 0.0 0.0 0.06 0.44 0.44 99 1003.9
20260507145854 66 23 0.0 0.0 0.06 0.44 0.43 99 1003.9
20260507144904 66 23 0.0 0.0 0.06 0.42 0.42 99 1003.9
20260507143848 66 12 0.0 2.0 0.04 0.41 0.40 99 1003.9
20260507142901 67 327 0.0 2.0 0.03 0.40 0.40 99 1003.9
20260507141912 67 159 0.0 1.0 0.04 0.40 0.39 99 1003.9
20260507140936 66 122 0.0 1.0 0.03 0.39 0.38 99 1004.3
20260507134819 66 61 0.0 1.0 0.03 0.37 0.37 99 1004.4
20260507131558 66 80 0.0 2.0 0.00 0.36 0.35 99 1004.2
20260507130530 66 82 0.0 0.0 0.00 0.36 0.35 99 1004.3
20260507125503 65 57 0.0 1.0 0.00 0.36 0.35 99 1004.3
20260507124457 65 10 0.0 0.0 0.00 0.36 0.35 99 1004.3
20260507123426 65 73 0.0 0.0 0.00 0.36 0.35 99 1004.4
20260507121316 65 184 0.0 0.0 0.07 0.36 0.35 99 1004.5
20260507120320 65 184 0.0 0.0 0.12 0.34 0.34 99 1004.5
20260507114129 65 222 0.0 0.0 0.18 0.29 0.29 99 1004.9
20260507113150 65 222 0.0 0.0 0.23 0.26 0.26 99 1004.9
20260507112154 65 65 0.0 0.0 0.28 0.22 0.22 98 1004.9